GALAXY 17 (G-17)

Last updated on Mon Sep 07 2026 00:02:57 GMT+0000 (Coordinated Universal Time)

1 31307U 07016B 26249.57492160 -.00000222 00000+0 00000+0 0 9990 2 31307 3.1705 78.8133 0003051 117.3797 271.4374 1.00270468 70627
UTC large
Height (km)
Speed (km/s)
/
Latitude / Longitude
Inclination (degrees)
Orbital Period (minutes)
Azimuth
Elevation
Range (km)
Doppler Factor

Next 0 passes for location: London (51.5072 / 0.1276)

No passes found over London.
GALAXY 17 (G-17)